Weather History for KFSD - November, 2012

Change the Weather History Date:

Thursday, November 1, 2012

  Actual Average Record
Temperature  
Mean Temperature 41 °F 41 °F  
Max Temperature 49 °F 52 °F 73 °F (1938)
Min Temperature 32 °F 30 °F 8 °F (1951)
Degree Days  
Heating Degree Days 24 24  
Month to date heating degree days 24 24  
Since 1 July heating degree days 759 764  
Cooling Degree Days 0 0  
Month to date cooling degree days 0 0  
Year to date cooling degree days 1182 690  
Moisture  
Dew Point 31 °F    
Average Humidity 69    
Maximum Humidity 93    
Minimum Humidity 45    
Precipitation  
Precipitation 0.00 in 0.05 in 1.55 in (1972)
Month to date precipitation 0.00 0.05  
Year to date precipitation 15.68 24.38  
Snow  
Snow 0.00 in 0.20 in 5.00 in (1928)
Month to date snowfall 0.0 0.2  
Since 1 July snowfall 1.1 1.5  
Since 1 September snowfall 1.1 1.5  
Snow Depth 0.00 in    
Sea Level Pressure  
Sea Level Pressure 30.04 in    
Wind  
Wind Speed 9 mph (NNE)    
Max Wind Speed 17 mph    
Max Gust Speed 22 mph    
Visibility 9 miles    
Events      
T = Trace of Precipitation, MM = Missing Value Source: NWS Daily Summary

Daily Weather History Graph

Daily Weather History Graph

Search for Another Location

Airport or City:

Trip Planner

Search our weather history database for the weather conditions in past years. The results will help you decide how hot, cold, wet, or windy it might be!

Date:

Astronomy

Nov. 01, 2012 Rise Set
Actual Time 8:03 AM CDT 6:17 PM CDT
Civil Twilight 7:33 AM CDT 6:47 PM CDT
Nautical Twilight 6:59 AM CDT 7:20 PM CDT
Astronomical Twilight 6:26 AM CDT 7:54 PM CDT
Moon 8:11 PM CDT 10:40 AM CDT
Length of Visible Light 11h 13m
Length of Day
10h 13m
Waning Gibbous, 93% of the Moon is Illuminated
Nov 1
Waning Gibbous
Nov 6
Last Quarter
Nov 13
New
Nov 20
First Quarter
Nov 28
Full

Hourly Weather History & Observations

Time (CDT) Temp. Windchill Dew Point Humidity Pressure Visibility Wind Dir Wind Speed Gust Speed Precip Events Conditions
12:56 AM 39.0 °F - 35.1 °F 86% 29.99 in 10.0 mi Calm Calm - N/A   Clear
1:56 AM 37.0 °F - 33.1 °F 86% 30.00 in 10.0 mi Calm Calm - N/A   Clear
2:56 AM 39.9 °F 35.1 °F 35.1 °F 83% 30.01 in 10.0 mi NNE 6.9 mph - N/A   Scattered Clouds
3:56 AM 41.0 °F 37.1 °F 37.0 °F 86% 30.01 in 9.0 mi NNE 5.8 mph - N/A   Partly Cloudy
4:56 AM 39.0 °F 34.8 °F 36.0 °F 89% 30.01 in 6.0 mi North 5.8 mph - N/A   Clear
5:09 AM 37.4 °F 32.1 °F 35.6 °F 93% 29.99 in 6.0 mi NNE 6.9 mph - N/A   Partly Cloudy
5:18 AM 39.2 °F 33.6 °F 37.4 °F 93% 29.99 in 6.0 mi NNE 8.1 mph - N/A   Mostly Cloudy
5:56 AM 41.0 °F 33.9 °F 39.0 °F 93% 30.02 in 6.0 mi NNE 12.7 mph - N/A   Overcast
6:56 AM 41.0 °F 34.3 °F 39.0 °F 93% 30.04 in 6.0 mi NNE 11.5 mph - N/A   Overcast
7:56 AM 39.0 °F 31.4 °F 37.9 °F 96% 30.06 in 5.0 mi NNE 12.7 mph - N/A   Overcast
8:56 AM 37.9 °F 29.6 °F 35.1 °F 89% 30.09 in 10.0 mi NNE 13.8 mph - N/A   Overcast
9:33 AM 37.4 °F 30.3 °F 33.8 °F 87% 30.06 in 10.0 mi North 10.4 mph - N/A   Overcast
9:56 AM 37.9 °F 30.0 °F 32.0 °F 79% 30.09 in 10.0 mi North 12.7 mph - N/A   Mostly Cloudy
10:45 AM 39.2 °F 32.0 °F 30.2 °F 70% 30.07 in 10.0 mi NNE 11.5 mph - N/A   Scattered Clouds
10:56 AM 39.9 °F 32.9 °F 30.9 °F 70% 30.10 in 10.0 mi NNE 11.5 mph - N/A   Scattered Clouds
11:56 AM 42.1 °F 38.4 °F 30.9 °F 65% 30.11 in 10.0 mi North 5.8 mph - N/A   Partly Cloudy
12:56 PM 45.0 °F 41.8 °F 30.0 °F 56% 30.09 in 10.0 mi NNW 5.8 mph - N/A   Clear
1:56 PM 46.0 °F 42.5 °F 30.0 °F 54% 30.06 in 10.0 mi North 6.9 mph - N/A   Clear
2:56 PM 46.9 °F - 27.0 °F 46% 30.04 in 10.0 mi NE 9.2 mph - N/A   Partly Cloudy
3:56 PM 46.9 °F - 26.1 °F 44% 30.02 in 10.0 mi NNE 6.9 mph - N/A   Clear
4:56 PM 46.9 °F - 26.1 °F 44% 30.02 in 10.0 mi NNE 6.9 mph - N/A   Clear
5:56 PM 42.1 °F 36.6 °F 25.0 °F 51% 30.02 in 10.0 mi NE 9.2 mph - N/A   Clear
6:56 PM 39.0 °F 34.8 °F 24.1 °F 55% 30.03 in 10.0 mi NE 5.8 mph - N/A   Clear
7:56 PM 37.9 °F 31.5 °F 25.0 °F 60% 30.04 in 10.0 mi NE 9.2 mph - N/A   Clear
8:56 PM 36.0 °F 28.0 °F 24.1 °F 62% 30.05 in 10.0 mi NE 11.5 mph - N/A   Clear
9:56 PM 34.0 °F 26.6 °F 24.1 °F 67% 30.05 in 10.0 mi ENE 9.2 mph - N/A   Clear
10:56 PM 33.1 °F 26.9 °F 24.1 °F 70% 30.07 in 10.0 mi NE 6.9 mph - N/A   Clear
11:56 PM 32.0 °F 24.2 °F 24.1 °F 73% 30.07 in 10.0 mi NE 9.2 mph - N/A   Clear